Location: Six Mile Lake
(44.9000°N, 79.7170°W)
Time: 02:08:26
(UTC-04:00)

LO-87 - Pass Details

Date: 02 July 2022
Orbit: 450 x 466 km, 97.4° (Epoch: 14 August)

Event Time Altitude Azimuth Distance (km) Brightness Sun altitude
Exits shadow 23:33:24 10° 80° (E) 1,646 ? -17.7°
Reaches altitude 10° 23:33:41 10° 75° (ENE) 1,615 ? -17.7°
Maximum altitude 23:34:25 11° 62° (ENE) 1,584 ? -17.7°
Drops below altitude 10° 23:35:10 10° 50° (NE) 1,621 ? -17.8°
Sets 23:38:47 0° 10° (N) 2,511 ? -18.1°
